Regional Weather Roundup
Issued by NWS

Home | Current Version | Previous Version | Graphics & Text | Print | Product List | Glossary On
Versions: 1 2 3 4 5 6 7 8 9 10 11 12 13 14 15 16 17 18 19 20 21 22 23 24 25 26 27 28 29 30 31 32 33 34 35 36 37 38 39 40 41 42 43 44 45 46 47 48 49 50
000
ASUS43 KLOT 010400
RWRIL

ILLINOIS REGIONAL WEATHER ROUNDUP
NATIONAL WEATHER SERVICE CHICAGO/ROMEOVILLE IL
1000 PM CST SAT JAN 31 2015

NOTE: "FAIR" INDICATES FEW OR NO CLOUDS BELOW 12,000 FEET WITH NO
SIGNIFICANT WEATHER AND/OR OBSTRUCTIONS TO VISIBILITY.

* THESE STATIONS ARE NOT UNDER NWS QUALITY CONTROL. THEY ALSO MAY NOT
  REPORT WEATHER SUCH AS PRECIPITATION OR FOG.

ILZ001-002-007-009-015-016-024-010500-
NORTHWEST ILLINOIS

CITY           SKY/WX    TMP DP  RH WIND       PRES   REMARKS
MOLINE         LGT RAIN  33  31  92 SE3       30.09F FOG
STERLING*        N/A    N/A N/A N/A MISG        N/A
$$

ILZ003-004-008-010-011-017-018-010500-
NORTH CENTRAL ILLINOIS

CITY           SKY/WX    TMP DP  RH WIND       PRES   REMARKS
ROCKFORD       LGT SNOW  31  28  89 E7        30.15R VSB 1   WCI  24
$$

ILZ005-006-012>014-019>023-010500-
NORTHEAST ILLINOIS

CITY           SKY/WX    TMP DP  RH WIND       PRES   REMARKS
CHICAGO-OHARE  LGT SNOW  31  29  92 E8        30.15R FOG     WCI  23
CHICAGO-MIDWAY LGT SNOW  33  30  88 E7        30.16R FOG     WCI  27
AURORA         LGT SNOW  33  31  92 SE3       30.14S VSB 3/4
WAUKEGAN       LGT SNOW  30  29  96 NE9       30.16S VSB 1   WCI  22
DUPAGE AIRPORT LGT SNOW  33  31  92 E3        30.14R VSB 1
WHEELING       LGT SNOW  31  28  89 NE6       30.17S VSB 1   WCI  25
NORTHERLY ISL    N/A     31  29  92 E6          N/A  WCI  25
$$

LMZ740>746-010500-
SOUTHERN LAKE MICHIGAN

STATION/POSITION SKY/WX   TEMP    WIND        PRES    VSBY  WAVE
                          AIR SEA DIR/SP/G                  HT/PER
                          (F)     (DEG/KT/KT) (MB)    (MI)  (FT/S)
WAUKEGAN HARBOR            30      50/ 12/ 14   N/A
HARRISON CRIB              31      60/  9/ 10   N/A
BURNHAM HARBOR             31      90/  4       N/A
CALUMET HARBOR             32      50/  2/  2   N/A
MICHIGAN CITY              32     210/  3/  3   N/A
$$

ILZ025>027-034>036-040-047-049-050-058-095>099-010500-
WEST-CENTRAL ILLINOIS

CITY           SKY/WX    TMP DP  RH WIND       PRES   REMARKS
QUINCY         LGT SNOW  33  31  92 SE12      30.06F FOG     WCI  24
$$

ILZ028>032-037-038-041>044-048-051>054-059>061-010500-
CENTRAL ILLINOIS

CITY           SKY/WX    TMP DP  RH WIND       PRES   REMARKS
DECATUR        CLOUDY    34  32  92 SE7       30.16F FOG     WCI  28
PEORIA         LGT SNOW  34  32  92 S7        30.14F FOG     WCI  28
SPRINGFIELD    LGT RAIN  35  33  92 S7        30.14F WCI  29
TAYLORVILLE    NOT AVBL
$$

ILZ033-039-045-046-055>057-062-063-010500-
EAST-CENTRAL ILLINOIS

CITY           SKY/WX    TMP DP  RH WIND       PRES   REMARKS
CHAMPAIGN      LGT RAIN  33  32  96 S3        30.16F FOG
MATTOON        CLOUDY    33  31  92 SE5       30.16F WCI  29
$$

ILZ079-100>102-010500-
SOUTHWEST ILLINOIS

CITY           SKY/WX    TMP DP  RH WIND       PRES   REMARKS
ALTON          CLOUDY    37  27  65 SE9       30.11F WCI  31
BELLEVILLE     CLOUDY    37  29  71 E8        30.11F WCI  31
CAHOKIA*       CLOUDY    39  28  64 SE6       30.11F WCI  35
$$

ILZ064>066-069>071-074>076-080>082-084>086-088>090-092>094-010500-
SOUTH-CENTRAL ILLINOIS

CITY           SKY/WX    TMP DP  RH WIND       PRES   REMARKS
CARBONDALE     CLOUDY    38  24  57 SE5       30.14F WCI  34
MT. VERNON     CLOUDY    37  27  65 E3        30.15F
$$

ILZ067-068-072-073-078-083-087-091-010500-
SOUTHEAST ILLINOIS

CITY           SKY/WX    TMP DP  RH WIND       PRES   REMARKS
LAWRENCEVILLE  CLOUDY    36  29  75 SE3       30.20S
$$

ABBREVIATIONS USED IN REMARKS
   TC - TEMPERATURE IN CELSIUS
  WCI - WIND CHILL INDEX
   HX - HEAT INDEX
  VSB - VISIBILITY
$$




USA.gov is the U.S. government's official web portal to all federal, state and local government web resources and services.